BREEZE-M R/B, 40365

Orbit data source: Space-Track

BREEZE-M R/B, 40365 is space debris in HEO originally from a launch on Sat, 27 Dec 2014 UTC launched from the Tyuratam Missile And Space Complex (TTMTR). Debris objects in space refer to the collection of defunct objects orbiting the Earth. Examples of debris include non-operational satellites, rocket bodies, and fragments generated from explosions, collisions, or faulty payload assembly.

Loading next visibility...
Identifier
40365, 2014-089B
Orbit
HEO
Country
Flag of CISCIS
Related business
Manufacturer
Khrunichev
Mission
Spacecraft
Bus & Motor
BRIZ, Unknown motor
Mass
~1,600 kg wet, 1,600 kg dry
Launch date (UTC)
2014-12-27 (11 years ago)
Launch vehicle
Unknown
Launch site
Tyuratam Missile And Space Complex (TTMTR)
Object type
Payload
Rocket body
Debris
Shape & HBR
Cyl, 2.0 m
Radar Cross Section
15.135 m², Large (>1 m²)

Expand to show TLE details & history
Last TLE update: 3 weeks ago

TLE from 3 weeks ago
0 BREEZE-M R/B
1 40365U 14089B   25281.25054876 -.00000074  00000-0  00000-0 0  9997
2 40365  24.0388  19.0931 6069318 266.5835  26.9075  2.19524657 86291
Epoch: 2025-10-08T06:00Z
TLE epoch observation values (Epoch: 2025-10-08T06:00:47.412Z)
Latitude
0.00008°
Longitude
-88.26501°
Altitude
10,049.136 km
Speed
5.709 km/s
True Right ascension
01h 16m 14s
True Declination
0° 00' 00"
Sunlit
Object was in full shadow at epoch
Visualization orbit readout
Latitude
Unknown
Longitude
Unknown
Altitude
Unknown
Speed
Unknown
Apparent Right ascension
Unknown
Apparent Declination
Unknown
Sunlit
N/A
Visualization observer readout
Local Sidereal Time
18:35:29
Azimuth
Unknown
Elevation
Unknown
Doppler factor
Unknown
Orbital elements
Apogee altitude
33,812.335 km
Perigee altitude
3,452.77 km
Semi-major axis
25,010.689 km
Eccentricity
0.60693
Inclination
24.0388°
RAAN
19.0931°
Arg. of periapsis
266.5835°
True anomaly
93.66254°
Mean anomaly
26.9075°
Eccentric anomaly
55.60079°
Mean motion
0.54872 °/min
Orbital period
656.07 mins
BSTAR
0
Loading maneuver chart data...
Computing Atmospheric mass density...
Loading historical data...
Loading historical data...
Loading historical data...
Loading historical data...
Loading historical data...
Loading historical data...
Loading historical data...
Other satellites on launch #89 in the year 2014 (2014-12-27 UTC)

Documentation

Showing up to 5 results
|